Retour au catalogue

ATLAS 5 CENTAUR DEB

ActifHEO
NORAD 51477·DEBRIS·🇺🇸 United States

Lancé Sep 17, 2014 depuis Cape Canaveral Space Force Station

Loading…

Prochains Passages (prochaines 24 heures)

TLE

FraisSource: Space-Track

Époque: Sep 6, 2026, 10:53 UTC

1 51477U 14055DH  26249.45410363 -.00000325  00000-0  00000+0 0  9998
2 51477  21.3415  73.3602 5149416 292.1787  21.9759  1.94651663 28564

Suivez ATLAS 5 CENTAUR DEB en temps réel avec AllMySat

Download on the App Store